TimeEST,TemperatureF,Dew PointF,Humidity,Sea Level PressureIn,VisibilityMPH,Wind Direction,Wind SpeedMPH,Gust SpeedMPH,PrecipitationIn,Events,Conditions,WindDirDegrees,DateUTC
12:54 AM,24.1,15.1,69,29.84,10.0,NW,11.5,21.9,N/A,,Overcast,310,2013-03-04 05:54:00
1:54 AM,24.1,15.1,69,29.84,10.0,NW,15.0,23.0,N/A,,Overcast,320,2013-03-04 06:54:00
2:54 AM,24.1,15.1,69,29.84,10.0,NW,13.8,-,N/A,,Overcast,320,2013-03-04 07:54:00
3:54 AM,24.1,16.0,71,29.84,10.0,NW,13.8,23.0,N/A,,Overcast,310,2013-03-04 08:54:00
4:54 AM,24.1,15.1,69,29.86,10.0,NW,11.5,21.9,N/A,,Overcast,320,2013-03-04 09:54:00
5:54 AM,24.1,14.0,65,29.88,10.0,NW,16.1,31.1,N/A,,Overcast,310,2013-03-04 10:54:00
6:54 AM,24.1,14.0,65,29.89,9.0,West,16.1,-,N/A,,Overcast,280,2013-03-04 11:54:00
7:54 AM,24.1,12.0,60,29.91,10.0,NNW,15.0,26.5,0.00,,Overcast,330,2013-03-04 12:54:00
8:08 AM,24.8,12.2,59,29.87,10.0,NW,12.7,25.3,N/A,,Overcast,320,2013-03-04 13:08:00
8:31 AM,24.8,12.2,59,29.87,10.0,West,13.8,21.9,N/A,,Overcast,270,2013-03-04 13:31:00
8:54 AM,24.1,12.0,60,29.91,10.0,WNW,11.5,20.7,N/A,,Overcast,300,2013-03-04 13:54:00
9:54 AM,25.0,12.9,60,29.90,10.0,WNW,16.1,21.9,N/A,,Overcast,300,2013-03-04 14:54:00
10:19 AM,26.6,12.2,55,29.87,10.0,WNW,16.1,-,N/A,,Overcast,290,2013-03-04 15:19:00
10:54 AM,26.1,14.0,60,29.91,10.0,NW,12.7,24.2,N/A,,Overcast,320,2013-03-04 15:54:00
11:27 AM,28.4,15.8,59,29.87,10.0,NW,18.4,24.2,N/A,,Overcast,310,2013-03-04 16:27:00
11:54 AM,28.9,15.1,56,29.90,10.0,NW,16.1,20.7,N/A,,Overcast,310,2013-03-04 16:54:00
12:54 PM,33.1,16.0,50,29.87,10.0,WNW,15.0,24.2,N/A,,Overcast,300,2013-03-04 17:54:00
1:54 PM,34.0,16.0,48,29.86,10.0,NW,18.4,26.5,N/A,,Partly Cloudy,310,2013-03-04 18:54:00
2:54 PM,33.1,16.0,50,29.87,10.0,WNW,23.0,27.6,N/A,,Overcast,290,2013-03-04 19:54:00
3:54 PM,33.1,16.0,50,29.88,10.0,NW,21.9,28.8,N/A,,Overcast,310,2013-03-04 20:54:00
4:54 PM,32.0,17.1,54,29.89,10.0,WNW,18.4,23.0,N/A,,Overcast,300,2013-03-04 21:54:00
5:54 PM,30.9,18.0,59,29.91,10.0,NW,17.3,21.9,N/A,,Overcast,310,2013-03-04 22:54:00
6:54 PM,30.9,18.0,59,29.93,10.0,WNW,17.3,26.5,N/A,,Overcast,290,2013-03-04 23:54:00
7:54 PM,30.0,18.0,61,29.95,10.0,WNW,18.4,-,N/A,,Overcast,300,2013-03-05 00:54:00
8:54 PM,30.0,19.0,64,29.97,10.0,WNW,16.1,-,N/A,,Overcast,300,2013-03-05 01:54:00
9:54 PM,28.9,19.0,67,29.97,10.0,NW,13.8,-,N/A,,Overcast,310,2013-03-05 02:54:00
10:54 PM,28.9,19.0,67,29.98,10.0,WNW,15.0,-,N/A,,Overcast,300,2013-03-05 03:54:00
11:54 PM,28.9,19.9,69,29.98,10.0,NW,16.1,25.3,N/A,,Overcast,310,2013-03-05 04:54:00